Location: Monrovia
(34.7865°N, 86.7139°W)
Time: 00:51:37
(UTC+00:00)

SL-08 R/B - Pass Details

Date: 14 July 2020
Orbit: 674 x 739 km, 98.4° (Epoch: 12 August)

Event Time Altitude Azimuth Distance (km) Brightness Sun altitude
Exits shadow 09:37:10 18° 228° (SW) 1,687 4.6 -12.5°
Maximum altitude 09:39:15 24° 264° (W) 1,448 4.5 -12.2°
Drops below altitude 10° 09:43:05 10° 318° (NW) 2,192 5.8 -11.5°
Sets 09:45:47 0° 332° (NNW) 3,128 6.8 -11.1°
